Location: Unspecified
(48.7670°N, 0.0000°E)
Time: 00:27:54
(UTC+00:00)

Altair - Pass Details

Date: 27 June 2019
Orbit: 1501 x 1683 km, 47.2° (Epoch: 21 July)

Event Time Altitude Azimuth Distance (km) Brightness Sun altitude
Rises 16:22:35 0° 186° (S) 4,643 10.1 33.7°
Reaches altitude 10° 16:26:38 10° 170° (S) 3,685 9.5 33.0°
Maximum altitude 16:32:46 20° 128° (SE) 3,018 8.8 32.0°
Drops below altitude 10° 16:39:02 10° 87° (E) 3,783 9.1 31.0°
Sets 16:43:13 0° 71° (ENE) 4,805 9.6 30.3°
